Volver al catálogo

COSMOS 252 DEB

ActivoLEO
NORAD 18556·DEBRIS·🇷🇺 Russia

Lanzado Nov 1, 1968 desde Baikonur Cosmodrome

Loading…

Próximos Pases (próximas 24 horas)

TLE

ActualizadoSource: Space-Track

Época: Sep 13, 2026, 19:52 UTC

1 18556U 68097EP  26256.82794533  .00001763  00000-0  96480-3 0  9994
2 18556  62.1934  58.6241 0391750 286.6765  69.1617 13.82171745510064

Sigue COSMOS 252 DEB en tiempo real con AllMySat

Download on the App Store